Location: ????????
(60.5616°N, 46.8254°E)
Time: 09:18:20
(UTC+00:00)

Cosmos 2297 Rocket - Pass Details

Date: 18 February 2020
Orbit: 838 x 844 km, 71.0° (Epoch: 03 April)

Event Time Altitude Azimuth Distance (km) Brightness Sun altitude
Rises 14:57:06 0° 296° (WNW) 3,411 6.4 -9.0°
Reaches altitude 10° 14:59:52 10° 308° (NW) 2,477 5.3 -9.3°
Maximum altitude 15:04:50 30° 9° (N) 1,482 3.4 -9.9°
Enters shadow 15:09:20 12° 67° (ENE) 2,330 3.9 -10.5°
